Other Public Products
Issued by NWS Grand Forks, ND

Home | Current Version | Previous Version | Text Only | Print | Product List | Glossary Off
Versions: 1 2 3 4 5 6 7 8 9 10 11 12 13 14 15 16 17 18 19 20 21 22 23 24 25 26 27 28 29 30 31 32 33 34 35 36 37 38 39 40 41 42 43 44 45 46 47 48 49 50

770
FPUS83 KFGF 270010
OPUFGF
PRAIRIE TO PINES WEATHER ROUNDUP
NATIONAL WEATHER SERVICE EASTERN NORTH DAKOTA/GRAND FORKS ND
700 PM CDT WED JUL 26 2017

 **SATELLITE DATA USED TO AUGMENT SKY COVER AT AUTOMATED STATIONS**
 *****  WEATHER ACROSS EASTERN NORTH DAKOTA  *****

CITY           SKY/WX    TMP DP  RH WIND       PRES   REMARKS
GRAND FORKS    FAIR      81  60  48 N10       30.05S
6HR MIN TEMP:  78; 6HR MAX TEMP:  84;

GRAND FORKS AF FAIR      79  59  50 N9        30.07S
GRAND CITY NWS NOT AVBL
BUXTON         NOT AVBL
DEVILS LAKE    FAIR      78  57  48 NE9       30.11S
6HR MIN TEMP:  75; 6HR MAX TEMP:  79;

FARGO          FAIR      81  59  47 N15       30.05R
6HR MIN TEMP:  79; 6HR MAX TEMP:  84;

WAHPETON ARPT  MOCLDY    79  59  50 N9        30.05R
$$

 *****  WEATHER ACROSS CENTRAL AND WESTERN NORTH DAKOTA  *****

CITY           SKY/WX    TMP DP  RH WIND       PRES   REMARKS
JAMESTOWN      FAIR      81  57  43 N9        30.09S
6HR MIN TEMP:  79; 6HR MAX TEMP:  83;

BISMARCK       FAIR      84  48  28 NE8       30.09S
6HR MIN TEMP:  84; 6HR MAX TEMP:  89;

MINOT          FAIR      84  52  33 NE9       30.10S
6HR MIN TEMP:  81; 6HR MAX TEMP:  86;

MINOT AFB      FAIR      82  50  33 N5        30.09S
6HR MIN TEMP:  79; 6HR MAX TEMP:  83;

GARRISON         N/A     82  51  34 E7        30.10F
6HR MIN TEMP:  81; 6HR MAX TEMP:  85;

WILLISTON      FAIR      90  46  21 NE6       30.06F
6HR MIN TEMP:  85; 6HR MAX TEMP:  91;

DICKINSON      FAIR      88  52  29 E12       30.07F
6HR MIN TEMP:  83; 6HR MAX TEMP:  89;

HETTINGER      FAIR      88  49  25 SE12      30.11F
6HR MIN TEMP:  84; 6HR MAX TEMP:  89;

$$

 *****  OTHER OBSERVATIONS NORTHEAST NORTH DAKOTA  *****

CITY           SKY/WX    TMP DP  RH WIND       PRES   REMARKS
WALHALLA       NOT AVBL
LANGDON        FAIR      77  59  53 N6        30.11S
CAVALIER       FAIR      79  57  47 N7        30.06R
GRAFTON        FAIR      79  61  53 NW7       30.08R
CANDO          NOT AVBL
FORT TOTTEN      N/A     80  58  46 N5        29.95S
ROLLA            N/A     77  57  50 NW6       30.13S
RUGBY          NOT AVBL
 ***** THE ABOVE OBSERVATIONS ARE NON NWS ARE NOT QUALITY
        CONTROLLED AND MAY MIS-REPORT RAIN FOR SNOW...
$$

 *****  OTHER OBSERVATIONS SOUTHEAST NORTH DAKOTA *****

CITY           SKY/WX    TMP DP  RH WIND       PRES   REMARKS
COOPERSTOWN    FAIR      79  61  53 N9        30.10S
VALLEY CITY    FAIR      77  59  53 N6G14     30.10S
OAKES          NOT AVBL
GWINNER        CLEAR     79  61  53 N8        30.07S
BUFFALO          N/A     77  51  40 E8          N/A
WYNDMERE       NOT AVBL
 ***** THE ABOVE OBSERVATIONS ARE NON NWS ARE NOT QUALITY
       CONTROLLED AND MAY MIS-REPORT RAIN FOR SNOW...
$$

  *****  WEATHER ACROSS NORTHERN MINNESOTA  *****

CITY           SKY/WX    TMP DP  RH WIND       PRES   REMARKS
FLAG ISLAND    FAIR      79  55  44 N10       30.01R
WARROAD        FAIR      79  61  53 NW8       30.03S
ROSEAU         FAIR      79  63  57 N7        30.03S
HALLOCK        FAIR      79  59  50 NW8       30.04S
THF RVR FALLS  FAIR      78  57  48 N12       30.06S
6HR MIN TEMP:  75; 6HR MAX TEMP:  80;

HALSTAD        NOT AVBL
FOSSTON        PTSUNNY   79  59  50 NW12      30.06S
BAUDETTE       FAIR      79  59  50 NW7       30.02R
6HR MIN TEMP:  76; 6HR MAX TEMP:  81;

WASKISH        FAIR      75  61  60 CALM      30.03R
CROOKSTON      FAIR      79  61  53 N7        30.06S
$$
  *****  WEATHER ACROSS CENTRAL AND WEST MINNESOTA  *****

CITY           SKY/WX    TMP DP  RH WIND       PRES   REMARKS
BEMIDJI        FAIR      77  58  52 N9        30.04S
PARK RAPIDS    FAIR      80  58  46 NW10      30.04S
6HR MIN TEMP:  77; 6HR MAX TEMP:  83;

WADENA         FAIR      79  61  53 NW8       30.04S
DETROIT LAKES  FAIR      77  61  57 N8        30.07S
MOORHEAD       FAIR      79  61  53 N12       30.06R
FERGUS FALLS   FAIR      79  63  57 N8        30.04R
ELBOW LAKE     FAIR      78  63  59 NW10      30.05S
6HR MIN TEMP:  76; 6HR MAX TEMP:  78;

MORRIS MN      FAIR      81  61  50 N7        30.04S
STAPLES        PTSUNNY   81  57  44 N8        30.03S
WHEATON        FAIR      79  61  53 N7        30.06S
$$
  *****  WEATHER ELSEWHERE ACROSS MINNESOTA  *****

CITY           SKY/WX    TMP DP  RH WIND       PRES   REMARKS
DULUTH         FAIR      79  61  53 N5        29.99R
6HR MIN TEMP:  75; 6HR MAX TEMP:  81;

INTRNTL FALLS  PTSUNNY   78  57  48 N10       30.00R
6HR MIN TEMP:  74; 6HR MAX TEMP:  81;

ELY            FAIR      75  55  50 N6        30.00R
CLOQUET        FAIR      79  57  47 NW7       30.00R
BRAINERD       CLOUDY    79  60  52 N9        30.02R
6HR MIN TEMP:  77; 6HR MAX TEMP:  81;

HIBBING        FAIR      75  57  53 N10       30.00R
6HR MIN TEMP:  74; 6HR MAX TEMP:  79;

ALEXANDRIA     FAIR      78  61  55 NW9       30.06S
6HR MIN TEMP:  77; 6HR MAX TEMP:  80;

SAINT CLOUD    FAIR      80  62  54 N9        30.00S
6HR MIN TEMP:  78; 6HR MAX TEMP:  83;

MINNEAPOLIS    FAIR      82  60  47 NW10      29.97S
6HR MIN TEMP:  78; 6HR MAX TEMP:  84;

$$

  *****  WEATHER ACROSS SOUTH DAKOTA  *****

CITY           SKY/WX    TMP DP  RH WIND       PRES   REMARKS
SIOUX FALLS    FAIR      80  61  52 NE10      30.05R
6HR MIN TEMP:  80; 6HR MAX TEMP:  85;

BROOKINGS      FAIR      79  60  52 N9        30.07S
WATERTOWN      FAIR      79  60  52 N12       30.06S
6HR MIN TEMP:  77; 6HR MAX TEMP:  81;

HURON          FAIR      83  61  47 NE7       30.06S
6HR MIN TEMP:  80; 6HR MAX TEMP:  84;

SISSETON         N/A     79  63  57 N8        30.05R
ABERDEEN       FAIR      83  59  44 NE9       30.07S
6HR MIN TEMP:  81; 6HR MAX TEMP:  86;

MITCHELL       FAIR      82  61  48 NE9       30.06S
PIERRE         FAIR      87  52  29 VRB6      30.06F
6HR MIN TEMP:  83; 6HR MAX TEMP:  90;

MOBRIDGE       FAIR      86  59  39 NE8       30.07S
RAPID CITY     CLOUDY    84  51  31 SE8       30.13F
6HR MIN TEMP:  77; 6HR MAX TEMP:  88;

$$

  *****  SOME WEATHER IN NEARBY STATES *****

CITY           SKY/WX    TMP DP  RH WIND       PRES   REMARKS
GLASGOW MT     FAIR      91  43  18 NE6       30.00F
6HR MIN TEMP:  84; 6HR MAX TEMP:  92;

GREAT FALLS MT FAIR      92  35  13 E8        30.01F
6HR MIN TEMP:  81; 6HR MAX TEMP:  93;

CHEYENNE WY    LGT RAIN  69  55  60 NE9       30.30S
6HR MIN TEMP:  64; 6HR MAX TEMP:  73; 6HR PCP: TRACE;

SCOTTSBLUFF NE FAIR      83  59  44 E14       30.17S
6HR MIN TEMP:  79; 6HR MAX TEMP:  84;

OMAHA NE       CLOUDY    76  73  91 CALM      29.98F
6HR MIN TEMP:  74; 6HR MAX TEMP:  77; 6HR PCP:  0.27;

DES MOINES IA  CLOUDY    78  71  79 SW8       29.96S
6HR MIN TEMP:  78; 6HR MAX TEMP:  80; 6HR PCP:  0.03;

DAVENPORT IA     N/A     72  70  93 N6        29.96S
6HR MIN TEMP:  71; 6HR MAX TEMP:  84; 6HR PCP:  1.05;

CHICAGO IL     CLOUDY    81  71  71 S8        29.96F
6HR MIN TEMP:  81; 6HR MAX TEMP:  85;

EAU CLAIRE WI  FAIR      80  65  59 N6        29.95F
6HR MIN TEMP:  73; 6HR MAX TEMP:  80; 6HR PCP:  0.02;

LA CROSSE WI   PTSUNNY   83  71  67 NW5       29.94S
6HR MIN TEMP:  79; 6HR MAX TEMP:  84; 6HR PCP: TRACE;

$$

  *****  SOME NATIONAL WEATHER *****

CITY           SKY/WX    TMP DP  RH WIND       PRES   REMARKS
LA GUARDIA NY  MOCLDY    72  55  55 S10       30.14S
6HR MIN TEMP:  72; 6HR MAX TEMP:  78;



USA.gov is the U.S. government's official web portal to all federal, state and local government web resources and services.